| time (UTC) | temp F | wind direction | speed knots | gust knots | rain 1hr in | rain 24hr in | rain mn in | humidity % | barometer mb |
| 20260904205024 | 74 | 286 | 0.0 | 0.9 | 0.00 | 0.00 | 0.00 | 66 | 1010.1 |
| 20260904203523 | 75 | 301 | 0.0 | 2.6 | 0.00 | 0.00 | 0.00 | 64 | 1010.1 |
| 20260904202022 | 75 | 355 | 0.0 | 2.6 | 0.00 | 0.00 | 0.00 | 63 | 1010.1 |
| 20260904201219 | 76 | 340 | 0.0 | 0.9 | 0.00 | 0.00 | 0.00 | 65 | 1010.0 |
| 20260904200422 | 76 | 315 | 0.0 | 1.7 | 0.00 | 0.00 | 0.00 | 59 | 1010.0 |
| 20260904194222 | 76 | 343 | 0.0 | 1.7 | 0.00 | 0.00 | 0.00 | 59 | 1010.0 |
| 20260904193426 | 77 | 78 | 0.0 | 3.5 | 0.00 | 0.00 | 0.00 | 59 | 1010.0 |
| 20260904190518 | 76 | 219 | 0.0 | 0.9 | 0.00 | 0.00 | 0.00 | 59 | 1010.1 |
| 20260904185017 | 76 | 333 | 0.0 | 0.9 | 0.00 | 0.00 | 0.00 | 64 | 1010.0 |
| 20260904184210 | 77 | 16 | 0.0 | 0.9 | 0.00 | 0.00 | 0.00 | 63 | 1010.2 |
| 20260904182017 | 79 | 0 | 0.0 | 4.3 | 0.00 | 0.00 | 0.00 | 56 | 1010.0 |
| 20260904180514 | 78 | 321 | 0.0 | 6.1 | 0.00 | 0.00 | 0.00 | 56 | 1010.2 |
| 20260904175015 | 80 | 5 | 0.0 | 0.0 | 0.00 | 0.00 | 0.00 | 57 | 1010.3 |
| 20260904174902 | 82 | 348 | 0.0 | 0.9 | 0.00 | 0.00 | 0.00 | 51 | 1009.9 |
| 20260904172015 | 80 | 0 | 0.0 | 0.9 | 0.00 | 0.00 | 0.00 | 57 | 1010.0 |
| 20260904170513 | 79 | 161 | 0.0 | 4.3 | 0.00 | 0.00 | 0.00 | 54 | 1010.4 |
| 20260904165012 | 80 | 19 | 0.9 | 7.0 | 0.00 | 0.00 | 0.00 | 56 | 1010.6 |
| 20260904164157 | 79 | 294 | 0.0 | 6.1 | 0.00 | 0.00 | 0.00 | 56 | 1010.3 |
| 20260904162702 | 79 | 279 | 0.9 | 9.6 | 0.00 | 0.00 | 0.00 | 60 | 1010.4 |
| 20260904160507 | 78 | 308 | 0.0 | 0.9 | 0.00 | 0.00 | 0.00 | 60 | 1010.5 |
| 20260904155005 | 79 | 15 | 0.0 | 7.0 | 0.00 | 0.00 | 0.00 | 63 | 1010.6 |
| 20260904153505 | 78 | 355 | 0.9 | 8.7 | 0.00 | 0.00 | 0.00 | 63 | 1010.8 |
| 20260904152005 | 76 | 298 | 0.0 | 0.0 | 0.00 | 0.00 | 0.00 | 66 | 1010.8 |
| 20260904150459 | 76 | 338 | 0.0 | 4.3 | 0.00 | 0.00 | 0.00 | 72 | 1010.8 |
| 20260904144958 | 76 | 292 | 0.9 | 4.3 | 0.00 | 0.00 | 0.00 | 70 | 1010.8 |
| 20260904144152 | 74 | 355 | 0.0 | 0.0 | 0.00 | 0.00 | 0.00 | 74 | 1010.9 |
| 20260904141959 | 74 | 30 | 0.0 | 2.6 | 0.00 | 0.00 | 0.00 | 78 | 1010.9 |
| 20260904140457 | 71 | 332 | 0.0 | 4.3 | 0.00 | 0.00 | 0.00 | 82 | 1010.7 |
| 20260904134958 | 68 | 293 | 0.0 | 6.1 | 0.00 | 0.00 | 0.00 | 84 | 1010.7 |
| 20260904134200 | 64 | 295 | 0.0 | 5.2 | 0.00 | 0.00 | 0.00 | 99 | 1010.8 |
| 20260904131956 | 62 | 66 | 0.0 | 2.6 | 0.00 | 0.00 | 0.00 | 99 | 1010.8 |
| 20260904130457 | 61 | 355 | 0.0 | 0.0 | 0.00 | 0.00 | 0.00 | 99 | 1010.8 |
| 20260904124956 | 58 | 355 | 0.0 | 0.0 | 0.00 | 0.00 | 0.00 | 99 | 1011.0 |
| 20260904123455 | 56 | 355 | 0.0 | 0.0 | 0.00 | 0.00 | 0.00 | 99 | 1011.0 |
| 20260904121951 | 55 | 355 | 0.0 | 0.0 | 0.00 | 0.00 | 0.00 | 99 | 1011.2 |
| 20260904121144 | 55 | 355 | 0.0 | 0.0 | 0.00 | 0.00 | 0.00 | 99 | 1011.2 |
| 20260904114953 | 54 | 355 | 0.0 | 0.0 | 0.00 | 0.00 | 0.00 | 98 | 1011.2 |
| 20260904113452 | 54 | 355 | 0.0 | 0.0 | 0.00 | 0.00 | 0.00 | 98 | 1011.1 |
| 20260904111949 | 54 | 355 | 0.0 | 0.0 | 0.00 | 0.00 | 0.00 | 98 | 1010.9 |
| 20260904110448 | 54 | 355 | 0.0 | 0.0 | 0.00 | 0.00 | 0.00 | 98 | 1010.9 |
| 20260904104950 | 54 | 355 | 0.0 | 0.0 | 0.00 | 0.00 | 0.00 | 98 | 1010.5 |
| 20260904103445 | 54 | 355 | 0.0 | 0.0 | 0.00 | 0.00 | 0.00 | 98 | 1010.6 |
| 20260904101946 | 53 | 355 | 0.0 | 0.0 | 0.00 | 0.00 | 0.00 | 98 | 1010.6 |
| 20260904100445 | 53 | 355 | 0.0 | 0.0 | 0.00 | 0.00 | 0.00 | 98 | 1010.7 |
| 20260904094943 | 53 | 355 | 0.0 | 0.0 | 0.00 | 0.00 | 0.00 | 98 | 1010.4 |
| 20260904093445 | 53 | 355 | 0.0 | 0.0 | 0.00 | 0.00 | 0.00 | 98 | 1010.4 |
| 20260904091942 | 53 | 355 | 0.0 | 0.0 | 0.00 | 0.00 | 0.00 | 97 | 1010.4 |
| 20260904090439 | 54 | 355 | 0.0 | 0.0 | 0.00 | 0.00 | 0.00 | 97 | 1010.4 |
| 20260904084937 | 54 | 355 | 0.0 | 0.0 | 0.00 | 0.00 | 0.00 | 97 | 1010.4 |
| 20260904083437 | 54 | 355 | 0.0 | 0.0 | 0.00 | 0.00 | 0.00 | 97 | 1010.5 |
| 20260904081936 | 54 | 355 | 0.0 | 0.0 | 0.00 | 0.00 | 0.00 | 97 | 1010.4 |
| 20260904080438 | 54 | 355 | 0.0 | 0.0 | 0.00 | 0.00 | 0.00 | 97 | 1010.2 |
| 20260904074937 | 54 | 355 | 0.0 | 0.0 | 0.00 | 0.00 | 0.00 | 97 | 1010.3 |
| 20260904073438 | 55 | 355 | 0.0 | 0.0 | 0.00 | 0.00 | 0.00 | 97 | 1010.2 |
| 20260904071935 | 55 | 355 | 0.0 | 0.0 | 0.00 | 0.00 | 0.00 | 97 | 1010.3 |
| 20260904070434 | 55 | 355 | 0.0 | 0.0 | 0.00 | 0.00 | 0.00 | 97 | 1010.4 |
| 20260904064933 | 55 | 355 | 0.0 | 0.0 | 0.00 | 0.00 | 0.00 | 97 | 1010.4 |
| 20260904063433 | 56 | 355 | 0.0 | 0.0 | 0.00 | 0.00 | 0.00 | 97 | 1010.7 |
| 20260904061934 | 56 | 355 | 0.0 | 0.0 | 0.00 | 0.00 | 0.00 | 97 | 1010.7 |
| 20260904061133 | 56 | 355 | 0.0 | 0.0 | 0.00 | 0.00 | 0.00 | 97 | 1010.9 |
| 20260904054928 | 56 | 355 | 0.0 | 0.0 | 0.00 | 0.01 | 0.00 | 96 | 1011.0 |
| 20260904053428 | 57 | 355 | 0.0 | 0.0 | 0.00 | 0.07 | 0.00 | 97 | 1011.2 |
| 20260904051926 | 57 | 355 | 0.0 | 0.0 | 0.00 | 0.07 | 0.00 | 97 | 1011.3 |
| 20260904050427 | 57 | 355 | 0.0 | 0.0 | 0.00 | 0.07 | 0.00 | 96 | 1011.3 |
| 20260904045631 | 58 | 355 | 0.0 | 0.0 | 0.00 | 0.07 | 0.00 | 96 | 1011.4 |
| 20260904043427 | 58 | 355 | 0.0 | 0.0 | 0.00 | 0.07 | 0.00 | 96 | 1011.4 |
| 20260904041927 | 58 | 355 | 0.0 | 0.0 | 0.00 | 0.07 | 0.00 | 96 | 1011.4 |
| 20260904040428 | 59 | 355 | 0.0 | 0.0 | 0.00 | 0.07 | 0.00 | 96 | 1011.5 |
| 20260904034927 | 59 | 355 | 0.0 | 0.0 | 0.00 | 0.07 | 0.07 | 96 | 1011.4 |
| 20260904033427 | 60 | 355 | 0.0 | 0.0 | 0.00 | 0.07 | 0.07 | 96 | 1011.6 |
| 20260904032620 | 60 | 355 | 0.0 | 0.0 | 0.00 | 0.07 | 0.07 | 96 | 1011.3 |
| 20260904030427 | 60 | 355 | 0.0 | 0.0 | 0.00 | 0.07 | 0.07 | 95 | 1011.7 |
| 20260904024927 | 61 | 355 | 0.0 | 0.0 | 0.00 | 0.07 | 0.07 | 95 | 1011.5 |
| 20260904023427 | 61 | 355 | 0.0 | 0.0 | 0.00 | 0.07 | 0.07 | 95 | 1011.6 |
| 20260904021926 | 62 | 355 | 0.0 | 0.0 | 0.00 | 0.07 | 0.07 | 95 | 1011.5 |
| 20260904020428 | 62 | 355 | 0.0 | 0.0 | 0.00 | 0.07 | 0.07 | 95 | 1011.5 |
| 20260904014925 | 62 | 355 | 0.0 | 0.0 | 0.00 | 0.07 | 0.07 | 95 | 1011.8 |
| 20260904013427 | 63 | 355 | 0.0 | 0.0 | 0.00 | 0.07 | 0.07 | 95 | 1011.6 |
| 20260904011925 | 63 | 355 | 0.0 | 0.0 | 0.00 | 0.07 | 0.07 | 95 | 1011.7 |
| 20260904010426 | 64 | 355 | 0.0 | 0.0 | 0.00 | 0.07 | 0.07 | 95 | 1011.8 |
| 20260904004927 | 64 | 355 | 0.0 | 0.0 | 0.00 | 0.07 | 0.07 | 94 | 1011.5 |
| 20260904003425 | 65 | 355 | 0.0 | 0.0 | 0.00 | 0.07 | 0.07 | 94 | 1011.4 |
| 20260904001926 | 66 | 355 | 0.0 | 0.0 | 0.00 | 0.07 | 0.07 | 93 | 1010.9 |
| 20260904000427 | 66 | 355 | 0.0 | 0.0 | 0.00 | 0.07 | 0.07 | 93 | 1011.0 |
| 20260903234927 | 67 | 355 | 0.0 | 0.0 | 0.00 | 0.07 | 0.07 | 92 | 1010.7 |
| 20260903233426 | 68 | 355 | 0.0 | 0.0 | 0.00 | 0.07 | 0.07 | 92 | 1010.7 |
| 20260903231926 | 69 | 355 | 0.0 | 0.0 | 0.00 | 0.07 | 0.07 | 92 | 1010.4 |
| 20260903230426 | 70 | 355 | 0.0 | 0.0 | 0.00 | 0.07 | 0.07 | 91 | 1010.6 |
| 20260903224926 | 71 | 355 | 0.0 | 0.0 | 0.00 | 0.07 | 0.07 | 90 | 1010.5 |
| 20260903223426 | 72 | 355 | 0.0 | 0.0 | 0.00 | 0.07 | 0.07 | 88 | 1010.6 |
| 20260903221924 | 72 | 355 | 0.0 | 0.0 | 0.00 | 0.07 | 0.07 | 87 | 1010.6 |
| 20260903220423 | 73 | 355 | 0.0 | 0.0 | 0.00 | 0.07 | 0.07 | 87 | 1010.7 |
| 20260903214923 | 73 | 15 | 0.0 | 0.9 | 0.00 | 0.07 | 0.07 | 86 | 1010.9 |
| 20260903213423 | 75 | 13 | 0.0 | 0.0 | 0.00 | 0.07 | 0.07 | 84 | 1010.9 |
| 20260903212515 | 76 | 165 | 0.0 | 2.6 | 0.00 | 0.07 | 0.07 | 82 | 1010.7 |
| 20260903211939 | 75 | 13 | 0.0 | 4.3 | 0.00 | 0.07 | 0.07 | 83 | 1010.8 |